OBJECT K, 57175

Orbit data source: Space-Track

You're viewing an Uncataloged Satellite

Recently launched and/or uncataloged satellites may have evolving metadata. Metadata may include but not limited to: Owner, Maufacturer, Bus, Motor, and Mission.

OBJECT K, 57175 is a satellite in SSO that was launched on Tue, 27 Jun 2023 UTC via a SOYUZ-2-1B launch vehicle from the Vostochny Cosmodrome (VOSTO). Unknown objects in Earth's orbit typically refer to objects detected orbiting the Earth but have not yet been identified or cataloged. These objects could be anything from previously untracked satellites, spent rocket stages, debris from satellite collisions, or even natural meteoroids temporarily captured by Earth's gravity.

Loading next visibility...
Identifier
57175, 2023-091K
Orbit
SSO
Country
Flag of TBDTBD
Related business
Flag of BYBelarusian State University (BY)
Manufacturer
Belarus SU
Mission
Operational Amateur Communications
Bus & Motor
CUBESAT 3U, Unknown motor
Mass
4 kg wet, 4 kg dry
Launch date (UTC)
2023-06-27 (3 years ago)
Launch vehicle
SOYUZ-2-1B
Launch site
Vostochny Cosmodrome (VOSTO)
Object type
Unknown
Shape & HBR
Box, 0.1 m
Radar Cross Section
0.035 m², Small (<0.1 m²)

Expand to show TLE details & history
Last TLE update: 9 hours ago

TLE from 9 hours ago
0 OBJECT K
1 57175U 23091K   26104.28452203  .00006621  00000-0  24716-3 0  9997
2 57175  97.5110 166.9887 0009304 349.3168  10.7872 15.27694904154546
Epoch: 2026-04-14T06:49Z
TLE epoch observation values (Epoch: 2026-04-14T06:49:42.703Z)
Latitude
-0.00001°
Longitude
-137.9022°
Altitude
479.531 km
Speed
7.629 km/s
True Right ascension
11h 07m 57s
True Declination
0° 00' 00"
Sunlit
Object was in full shadow at epoch
Visualization orbit readout
Latitude
Unknown
Longitude
Unknown
Altitude
Unknown
Speed
Unknown
Apparent Right ascension
Unknown
Apparent Declination
Unknown
Sunlit
N/A
Visualization observer readout
Local Sidereal Time
22:31:20
Azimuth
Unknown
Elevation
Unknown
Doppler factor
Unknown
Orbital elements
Apogee altitude
486.046 km
Perigee altitude
473.285 km
Semi-major axis
6,857.802 km
Eccentricity
0.00093
Inclination
97.511°
RAAN
166.9887°
Arg. of periapsis
349.3168°
True anomaly
10.80718°
Mean anomaly
10.7872°
Eccentric anomaly
10.79719°
Mean motion
3.82178 °/min
Orbital period
94.2 mins
BSTAR
0.00024716
Loading maneuver chart data...
Computing Atmospheric mass density...
Loading historical data...
Loading historical data...
Loading historical data...
Loading historical data...
Loading historical data...
Loading historical data...
Loading historical data...

Documentation

Showing up to 5 results
|